Albuquerque Double Eagle, NM

4:53 PM MDT on April 28, 2017 (GMT -0600)
Double Eagle Ii

Weather History for KAEG - February, 2014

Change the Weather History Date:

Friday, February 14, 2014

  Actual Average (KABQ) Record (KABQ)
Temperature  
Mean Temperature 52 °F -  
Max Temperature 66 °F 54 °F 73 °F (1979)
Min Temperature 38 °F 30 °F 6 °F (1895)
Degree Days  
Heating Degree Days 13    
Growing Degree Days 2 (Base 50)    
Moisture  
Dew Point 23 °F    
Average Humidity 37    
Maximum Humidity 55    
Minimum Humidity 21    
Precipitation  
Precipitation 0.00 in - - ()
Sea Level Pressure  
Sea Level Pressure 30.11 in    
Wind  
Wind Speed 9 mph (NW)    
Max Wind Speed 22 mph    
Max Gust Speed 30 mph    
Visibility 10 miles    
Events      
Averages and records for this station are not official NWS values.
T = Trace of Precipitation, MM = Missing Value Source: NWS Daily Summary

Daily Weather History Graph

Daily Weather History Graph

Search for Another Location

Airport or City:

Trip Planner

Search our weather history database for the weather conditions in past years. The results will help you decide how hot, cold, wet, or windy it might be!

Date:

Astronomy

Feb. 14, 2014 Rise Set
Actual Time 6:54 AM MST 5:48 PM MST
Civil Twilight 6:28 AM MST 6:14 PM MST
Nautical Twilight 5:58 AM MST 6:44 PM MST
Astronomical Twilight 5:29 AM MST 7:14 PM MST
Moon 5:53 PM MST (2/14) 6:24 AM MST (2/14)
Length of Visible Light 11h 46m
Length of Day
10h 54m
Full, 100% of the Moon is Illuminated
Feb 14
Full
Feb 14
Full
Feb 22
Last Quarter
Mar 1
New
Mar 8
First Quarter

Hourly Weather History & Observations

Time (MST) Temp. Windchill Dew Point Humidity Pressure Visibility Wind Dir Wind Speed Gust Speed Precip Events Conditions
12:15 AM 38.7 °F - 20.8 °F 49% 30.06 in 10.0 mi Calm Calm - N/A   Clear
12:35 AM 41.2 °F - 20.3 °F 43% 30.06 in 10.0 mi Calm Calm - N/A   Clear
12:55 AM 42.1 °F 37.1 °F 19.8 °F 41% 30.06 in 10.0 mi West 8.1 mph - N/A   Clear
1:15 AM 45.0 °F 39.7 °F 19.0 °F 36% 30.06 in 10.0 mi West 10.4 mph - N/A   Clear
1:35 AM 43.9 °F 38.3 °F 18.9 °F 37% 30.06 in 10.0 mi WSW 10.4 mph - N/A   Clear
1:55 AM 45.3 °F 39.3 °F 19.0 °F 35% 30.06 in 10.0 mi WSW 12.7 mph - N/A   Clear
2:15 AM 48.2 °F - 19.2 °F 32% 30.06 in 10.0 mi WSW 15.0 mph - N/A   Clear
2:35 AM 47.8 °F - 19.4 °F 32% 30.06 in 10.0 mi WSW 10.4 mph - N/A   Clear
2:55 AM 45.3 °F 40.1 °F 19.4 °F 36% 30.06 in 10.0 mi West 10.4 mph - N/A   Clear
3:15 AM 48.0 °F - 20.3 °F 33% 30.06 in 10.0 mi West 12.7 mph - N/A   Clear
3:35 AM 51.4 °F - 21.0 °F 30% 30.06 in 10.0 mi WNW 15.0 mph 24.2 mph N/A   Clear
3:55 AM 46.2 °F 40.8 °F 20.7 °F 36% 30.07 in 10.0 mi WNW 11.5 mph - N/A   Clear
4:15 AM 50.0 °F - 21.2 °F 32% 30.06 in 10.0 mi NW 20.7 mph 29.9 mph N/A   Clear
4:35 AM 51.4 °F - 20.8 °F 30% 30.06 in 10.0 mi NW 16.1 mph 27.6 mph N/A   Clear
5:48 AM 42.8 °F 38.6 °F 19.4 °F 39% 30.09 in 10.0 mi North 6.9 mph - N/A   Clear
6:48 AM 41.0 °F - 17.6 °F 39% 30.12 in 10.0 mi Calm Calm - N/A   Scattered Clouds
7:48 AM 44.6 °F 37.8 °F 21.2 °F 39% 30.12 in 10.0 mi North 15.0 mph - N/A   Scattered Clouds
8:50 AM 50.0 °F - 24.8 °F 37% 30.15 in 10.0 mi North 12.7 mph - N/A   Partly Cloudy
9:50 AM 55.4 °F - 26.6 °F 33% 30.16 in 10.0 mi NNW 21.9 mph - N/A   Partly Cloudy
10:55 AM 59.0 °F - 23.0 °F 25% 30.16 in 10.0 mi NW 11.5 mph 18.4 mph N/A   Partly Cloudy
11:55 AM 60.8 °F - 24.8 °F 25% 30.14 in 10.0 mi NW 11.5 mph 18.4 mph N/A   Scattered Clouds
12:50 PM 64.4 °F - 24.8 °F 22% 30.11 in 10.0 mi NW 18.4 mph 25.3 mph N/A   Scattered Clouds
1:49 PM 66.2 °F - 24.8 °F 21% 30.08 in 10.0 mi WNW 18.4 mph 23.0 mph N/A   Scattered Clouds
2:49 PM 66.2 °F - 24.8 °F 21% 30.08 in 10.0 mi NNW 13.8 mph 20.7 mph N/A   Mostly Cloudy
3:48 PM 66.2 °F - 24.8 °F 21% 30.08 in 10.0 mi WNW 16.1 mph 23.0 mph N/A   Mostly Cloudy
4:48 PM 62.6 °F - 24.8 °F 24% 30.09 in 10.0 mi NW 17.3 mph - N/A   Mostly Cloudy
5:48 PM 57.2 °F - 24.8 °F 29% 30.12 in 10.0 mi NNW 9.2 mph - N/A   Mostly Cloudy
6:48 PM 53.6 °F - 24.8 °F 33% 30.14 in 10.0 mi North 10.4 mph - N/A   Clear
7:50 PM 46.4 °F 42.4 °F 24.8 °F 43% 30.16 in 10.0 mi North 8.1 mph - N/A   Clear
8:49 PM 50.0 °F - 24.8 °F 37% 30.16 in 10.0 mi NNW 11.5 mph - N/A   Clear
9:15 PM 44.6 °F 40.7 °F 24.6 °F 45% 30.16 in 10.0 mi NNW 6.9 mph - N/A   Clear
9:35 PM 45.0 °F 40.6 °F 25.7 °F 47% 30.17 in 10.0 mi North 8.1 mph - N/A   Clear
9:55 PM 45.9 °F 42.3 °F 25.7 °F 45% 30.17 in 10.0 mi NNW 6.9 mph - N/A   Clear
10:15 PM 45.5 °F 42.5 °F 25.9 °F 46% 30.17 in 10.0 mi NNW 5.8 mph - N/A   Clear
10:35 PM 44.1 °F 40.8 °F 25.7 °F 49% 30.17 in 10.0 mi NNW 5.8 mph - N/A   Clear
10:55 PM 43.7 °F 41.1 °F 25.5 °F 49% 30.17 in 10.0 mi North 4.6 mph - N/A   Clear
11:15 PM 42.4 °F - 25.5 °F 51% 30.17 in 10.0 mi Calm Calm - N/A   Clear
11:35 PM 40.6 °F 38.6 °F 25.3 °F 54% 30.18 in 10.0 mi West 3.5 mph - N/A   Clear
11:55 PM 39.6 °F 37.4 °F 24.4 °F 55% 30.17 in 10.0 mi West 3.5 mph - N/A   Clear